Location: Chacón
(10.5789°N, 66.9317°W)
Time: 22:22:07
(UTC+00:00)

Cosmos 1339 Rocket - Pass Details

Date: 19 August 2024
Orbit: 941 x 1006 km, 82.9° (Epoch: 12 September)

Event Time Altitude Azimuth Distance (km) Brightness Sun altitude
Rises 09:07:02 0° 138° (SE) 3,692 7.9 -17.8°
Reaches altitude 10° 09:12:02 10° 104° (ESE) 2,726 7.8 -16.6°
Maximum altitude 09:13:30 11° 90° (E) 2,657 8.0 -16.2°
Drops below altitude 10° 09:14:58 10° 76° (ENE) 2,715 8.2 -15.9°
Sets 09:19:51 0° 41° (NE) 3,642 8.5 -14.7°
